Weather History for Del Rio Laughlin AFB, TX

Change the Weather History Date:

Friday, May 17, 2013

  Actual Average Record
Temperature  
Mean Temperature 88 °F -  
Max Temperature 103 °F 91 °F 105 °F (2002)
Min Temperature 73 °F 70 °F 59 °F (2012)
Cooling Degree Days 23    
Growing Degree Days 38 (Base 50)    
Moisture  
Dew Point 65 °F    
Average Humidity 54    
Maximum Humidity 94    
Minimum Humidity 19    
Precipitation  
Precipitation 0.00 in - - ()
Sea Level Pressure  
Sea Level Pressure 29.76 in    
Wind  
Wind Speed 12 mph (SE)    
Max Wind Speed 20 mph    
Max Gust Speed 23 mph    
Visibility 9 miles    
Events      
Averages and records for this station are not official NWS values.
T = Trace of Precipitation, MM = Missing Value Source: NWS Daily Summary

Daily Weather History Graph

Daily Weather History Graph

Search for Another Location

Airport:

Trip Planner

Search our weather history database for the weather conditions in past years. The results will help you decide how hot, cold, wet, or windy it might be!

Date:

Astronomy

May. 17, 2013 Rise Set
Actual Time 6:49 AM CDT 8:29 PM CDT
Civil Twilight 6:23 AM CDT 8:55 PM CDT
Nautical Twilight 5:52 AM CDT 9:27 PM CDT
Astronomical Twilight 5:19 AM CDT 10:00 PM CDT
Moon 1:10 PM CDT (5/17) 1:34 AM CDT (5/17)
Length of Visible Light 14h 32m
Length of Day
13h 40m
Waxing Crescent, 45% of the Moon is Illuminated
May 17
Waxing Crescent
May 17
First Quarter
May 24
Full
May 31
Last Quarter
Jun 8
New

Hourly Weather History & Observations

Time (CDT) Temp. Heat Index Dew Point Humidity Pressure Visibility Wind Dir Wind Speed Gust Speed Precip Events Conditions
12:58 AM 81.3 °F 82.3 °F 61.9 °F 52% 29.75 in 10.0 mi East 9.2 mph - N/A   Clear
1:58 AM 80.1 °F 81.5 °F 63.0 °F 56% 29.75 in 10.0 mi East 6.9 mph - N/A   Clear
2:58 AM 78.6 °F - 62.4 °F 57% 29.76 in 10.0 mi East 10.4 mph - N/A   Clear
3:58 AM 79.0 °F - 63.1 °F 58% 29.71 in 10.0 mi ESE 11.5 mph - N/A   Clear
4:58 AM 77.7 °F - 66.9 °F 69% 29.71 in 10.0 mi ESE 12.7 mph - N/A   Clear
5:58 AM 76.6 °F - 69.8 °F 79% 29.72 in 10.0 mi ESE 11.5 mph - N/A   Clear
6:58 AM 74.5 °F - 71.4 °F 90% 29.74 in 8.0 mi ESE 8.1 mph - N/A   Clear
7:33 AM 73.4 °F - 71.6 °F 94% 29.81 in 6.0 mi ESE 11.5 mph - N/A   Mostly Cloudy
7:58 AM 74.5 °F - 72.3 °F 93% 29.78 in 6.0 mi ESE 12.7 mph - N/A   Overcast
8:58 AM 76.3 °F - 72.1 °F 87% 29.80 in 7.0 mi SE 13.8 mph - N/A   Overcast
9:33 AM 77.0 °F - 71.6 °F 83% 29.85 in 8.0 mi SE 13.8 mph - N/A   Overcast
9:58 AM 78.3 °F - 71.4 °F 79% 29.81 in 9.0 mi SE 12.7 mph - N/A   Overcast
10:28 AM 80.6 °F 84.6 °F 71.6 °F 74% 29.85 in 10.0 mi SE 15.0 mph - N/A   Overcast
10:43 AM 80.6 °F 84.6 °F 71.6 °F 74% 29.85 in 10.0 mi SE 12.7 mph - N/A   Scattered Clouds
10:58 AM 82.4 °F 87.0 °F 71.2 °F 69% 29.80 in 10.0 mi ESE 12.7 mph - N/A   Partly Cloudy
11:58 AM 86.2 °F 91.4 °F 70.7 °F 60% 29.80 in 10.0 mi SSE 13.8 mph - N/A   Clear
12:58 PM 90.7 °F 95.9 °F 69.8 °F 50% 29.78 in 10.0 mi SE 15.0 mph - N/A   Partly Cloudy
1:58 PM 95.7 °F 99.8 °F 67.1 °F 39% 29.75 in 10.0 mi South 12.7 mph 20.7 mph N/A   Scattered Clouds
1:59 PM 96.8 °F 100.7 °F 66.2 °F 37% 29.80 in 10.0 mi SE 13.8 mph - N/A   Scattered Clouds
2:58 PM 98.8 °F 99.7 °F 61.2 °F 29% 29.73 in 10.0 mi SSE 15.0 mph - N/A   Mostly Cloudy
3:41 PM 102.2 °F 102.4 °F 59.0 °F 24% 29.76 in 10.0 mi South 17.3 mph - N/A   Clear
3:58 PM 102.2 °F 101.9 °F 57.7 °F 23% 29.70 in 10.0 mi SSE 12.7 mph 23.0 mph N/A   Clear
4:58 PM 103.1 °F 101.1 °F 53.8 °F 19% 29.67 in 10.0 mi SSE 16.1 mph 19.6 mph N/A   Clear
5:58 PM 102.0 °F 100.1 °F 53.4 °F 20% 29.68 in 10.0 mi South 18.4 mph - N/A   Partly Cloudy
6:58 PM 100.8 °F 99.3 °F 54.9 °F 22% 29.68 in 10.0 mi SSE 19.6 mph - N/A   Clear
7:58 PM 97.9 °F 96.6 °F 55.9 °F 25% 29.70 in 10.0 mi South 13.8 mph - N/A   Clear
8:58 PM 93.7 °F 92.0 °F 55.6 °F 28% 29.73 in 10.0 mi SSE 8.1 mph - N/A   Scattered Clouds
9:58 PM 89.4 °F 88.2 °F 57.2 °F 34% 29.75 in 10.0 mi SE 8.1 mph - N/A   Overcast
10:58 PM - - - N/A% - - North - - N/A   Clear
11:58 PM - - - N/A% - - North - - N/A   Clear